This is the latest recevied weather packets stored in our database for station/object AC0MR. If no packets are shown the sender has not sent any weather packets the latest 10 day(s).
| Time | Temp. | Humidity | Pressure | Rain* | Wind** | Luminosity | Snow |
|---|---|---|---|---|---|---|---|
| 1777666518 | 11.11° C | 59% | 1016.5 hPa | 0 mm | - | 425 W/m² | - |
| 1777665918 | 10.56° C | 57% | 1016.6 hPa | 0 mm | - | 415 W/m² | - |
| 1777665318 | 10° C | 59% | 1016.6 hPa | 0 mm | - | 286 W/m² | - |
| 1777664718 | 10° C | 60% | 1016.6 hPa | 0 mm | - | 163 W/m² | - |
| 1777664118 | 10° C | 58% | 1016.5 hPa | 0 mm | - | 127 W/m² | - |
| 1777663518 | 10.56° C | 58% | 1016.5 hPa | 0 mm | - | 123 W/m² | - |
| 1777662918 | 10.56° C | 55% | 1016.6 hPa | 0 mm | - | 152 W/m² | - |
| 1777662318 | 11.11° C | 55% | 1016.6 hPa | 0 mm | - | 228 W/m² | - |
| 1777661718 | 11.67° C | 53% | 1016.4 hPa | 0 mm | - | 206 W/m² | - |
| 1777661118 | 12.22° C | 53% | 1016.4 hPa | 0 mm | - | 231 W/m² | - |
| 1777660518 | 12.22° C | 53% | 1016.4 hPa | 0 mm | - | 1118 W/m² | - |
| 1777659918 | 11.67° C | 57% | 1016.5 hPa | 0 mm | - | 464 W/m² | - |
| 1777659318 | 11.11° C | 57% | 1016.4 hPa | 0 mm | - | 406 W/m² | - |
| 1777658718 | 11.11° C | 58% | 1016.6 hPa | 0 mm | - | 331 W/m² | - |
| 1777658118 | 10.56° C | 60% | 1016.6 hPa | 0 mm | - | 983 W/m² | - |
| 1777657518 | 10.56° C | 61% | 1016.6 hPa | 0 mm | - | 325 W/m² | - |
| 1777656918 | 10° C | 62% | 1016.6 hPa | 0 mm | - | 484 W/m² | - |
| 1777656318 | 10.56° C | 61% | 1016.8 hPa | 0 mm | - | 251 W/m² | - |
| 1777655718 | 10.56° C | 67% | 1016.8 hPa | 0 mm | - | 352 W/m² | - |
| 1777655118 | 9.44° C | 66% | 1016.7 hPa | 0 mm | - | 714 W/m² | - |
| 1777654518 | 9.44° C | 67% | 1016.7 hPa | 0 mm | - | 983 W/m² | - |
| 1777653918 | 9.44° C | 68% | 1016.9 hPa | 0 mm | - | 1004 W/m² | - |
| 1777653318 | 9.44° C | 69% | 1017 hPa | 0 mm | - | 449 W/m² | - |
| 1777652718 | 8.33° C | 72% | 1017 hPa | 0 mm | - | 919 W/m² | - |
| 1777652118 | 7.78° C | 70% | 1016.9 hPa | 0 mm | - | 309 W/m² | - |
* Rain latest hour (hover to see other rain measurements)
** Current wind speed in m/s (hover to see current wind gust speed)